GW3691 Weather Reports


Display with metric or nautical units.
time (UTC)temp
F
wind
direction
speed
MPH
gust
MPH
rain 1hr
in
rain 24hr
in
rain mn
in
humidity
%
barometer
mb
20260505001649 69 150 0.0 0.0 0.00 0.00 0.00 70 1019.8
20260505001147 69 147 0.0 0.0 0.00 0.00 0.00 70 1019.9
20260505000644 70 134 0.0 0.0 0.00 0.00 0.00 69 1019.9
20260505000142 70 146 1.0 2.0 0.00 0.00 0.00 68 1019.6
20260504235638 70 145 0.0 0.0 0.00 0.00 0.00 68 1019.9
20260504235134 71 151 0.0 0.0 0.00 0.00 0.00 68 1019.6
20260504234632 71 153 0.0 0.0 0.00 0.00 0.00 67 1019.5
20260504234129 71 157 1.0 2.0 0.00 0.00 0.00 68 1019.6
20260504233625 72 79 1.0 2.0 0.00 0.00 0.00 66 1019.8
20260504233121 72 131 2.0 2.0 0.00 0.00 0.00 66 1019.5
20260504232619 72 117 2.0 2.0 0.00 0.00 0.00 65 1019.4
20260504232116 73 142 2.0 2.0 0.00 0.00 0.00 65 1019.4
20260504231612 73 159 0.0 1.0 0.00 0.00 0.00 64 1019.5
20260504231108 74 155 1.0 1.0 0.00 0.00 0.00 64 1019.3
20260504230604 74 1 2.0 6.0 0.00 0.00 0.00 62 1019.3
20260504230104 74 150 1.0 1.0 0.00 0.00 0.00 62 1019.5
20260504225601 74 165 1.0 1.0 0.00 0.00 0.00 62 1019.3
20260504225057 75 128 2.0 3.0 0.00 0.00 0.00 61 1019.7
20260504224554 75 120 1.0 2.0 0.00 0.00 0.00 61 1019.4
20260504224051 75 125 0.0 0.0 0.00 0.00 0.00 60 1020.1
20260504223548 76 102 0.0 1.0 0.00 0.00 0.00 60 1019.8
20260504223043 77 144 3.0 5.0 0.00 0.00 0.00 59 1019.8
20260504222541 76 167 0.0 1.0 0.00 0.00 0.00 60 1019.9
20260504222038 76 62 4.0 6.0 0.00 0.00 0.00 59 1019.8
20260504221535 76 128 1.0 1.0 0.00 0.00 0.00 60 1019.8
20260504221032 76 158 2.0 3.0 0.00 0.00 0.00 59 1019.7
20260504220529 76 69 1.0 1.0 0.00 0.00 0.00 58 1019.5
20260504220026 76 144 2.0 3.0 0.00 0.00 0.00 59 1019.9
20260504215522 76 167 1.0 1.0 0.00 0.00 0.00 59 1019.5
20260504215020 78 100 2.0 5.0 0.00 0.00 0.00 56 1019.9
20260504214516 78 120 1.0 2.0 0.00 0.00 0.00 58 1020.0
20260504214012 78 172 1.0 2.0 0.00 0.00 0.00 56 1019.9
20260504213508 77 154 1.0 1.0 0.00 0.00 0.00 60 1019.8
20260504213006 77 138 2.0 3.0 0.00 0.00 0.00 60 1019.7
20260504212501 77 137 3.0 3.0 0.00 0.00 0.00 59 1019.8
20260504211959 78 53 2.0 2.0 0.00 0.00 0.00 59 1019.6
20260504211455 78 102 1.0 2.0 0.00 0.00 0.00 57 1019.8
20260504210953 78 164 0.0 1.0 0.00 0.00 0.00 60 1019.8
20260504210450 77 147 1.0 1.0 0.00 0.00 0.00 59 1019.8
20260504205947 77 172 3.0 5.0 0.00 0.00 0.00 58 1020.0
20260504205444 77 166 2.0 3.0 0.00 0.00 0.00 59 1020.0
20260504204942 79 159 1.0 1.0 0.00 0.00 0.00 58 1020.1
20260504204440 77 61 1.0 2.0 0.00 0.00 0.00 61 1020.0
20260504203939 78 101 2.0 2.0 0.00 0.00 0.00 59 1019.9
20260504203436 79 135 1.0 2.0 0.00 0.00 0.00 58 1020.0
20260504202932 79 95 3.0 3.0 0.00 0.00 0.00 59 1020.1
20260504202429 77 141 2.0 2.0 0.00 0.00 0.00 61 1020.1
20260504201926 78 95 1.0 2.0 0.00 0.00 0.00 59 1020.3
20260504201423 79 101 4.0 5.0 0.00 0.00 0.00 58 1020.1
20260504200921 77 159 1.0 2.0 0.00 0.00 0.00 61 1020.1
20260504200417 79 166 1.0 2.0 0.00 0.00 0.00 58 1020.2
20260504195914 79 45 2.0 3.0 0.00 0.00 0.00 57 1020.1
20260504195409 81 147 1.0 1.0 0.00 0.00 0.00 57 1020.2
20260504194906 79 158 1.0 1.0 0.00 0.00 0.00 57 1020.3
20260504194402 79 170 1.0 1.0 0.00 0.00 0.00 58 1020.3
20260504193858 80 75 3.0 3.0 0.00 0.00 0.00 55 1020.4
20260504193356 81 159 0.0 1.0 0.00 0.00 0.00 54 1020.3
20260504192855 80 154 0.0 1.0 0.00 0.00 0.00 59 1020.5
20260504192352 78 154 1.0 1.0 0.00 0.00 0.00 57 1020.4
20260504191850 79 9 2.0 2.0 0.00 0.00 0.00 58 1020.3
20260504191348 80 75 3.0 5.0 0.00 0.00 0.00 58 1020.7
20260504190843 80 183 3.0 5.0 0.00 0.00 0.00 57 1020.6
20260504190339 79 149 2.0 2.0 0.00 0.00 0.00 57 1020.8
20260504185836 79 83 3.0 6.0 0.00 0.00 0.00 55 1020.8
20260504185333 79 50 3.0 5.0 0.00 0.00 0.00 59 1020.9
20260504184829 80 114 2.0 3.0 0.00 0.00 0.00 57 1021.2
20260504184325 78 113 1.0 2.0 0.00 0.00 0.00 61 1021.3
20260504183820 79 149 2.0 2.0 0.00 0.00 0.00 59 1021.2
20260504183318 80 87 5.0 8.0 0.00 0.00 0.00 56 1021.2
20260504182816 77 127 2.0 2.0 0.00 0.00 0.00 62 1021.4
20260504182313 77 52 3.0 6.0 0.00 0.00 0.00 60 1021.4
20260504181810 78 86 3.0 3.0 0.00 0.00 0.00 57 1021.4
20260504181307 79 82 4.0 7.0 0.00 0.00 0.00 58 1021.4
20260504180806 78 156 2.0 2.0 0.00 0.00 0.00 58 1021.1
20260504180305 80 151 1.0 1.0 0.00 0.00 0.00 57 1021.2
20260504175802 79 90 2.0 3.0 0.00 0.00 0.00 57 1021.2
20260504175259 79 163 4.0 6.0 0.00 0.00 0.00 56 1021.2
20260504174757 80 72 2.0 3.0 0.00 0.00 0.00 59 1021.5
20260504174254 79 84 2.0 5.0 0.00 0.00 0.00 61 1021.4
20260504173750 78 148 1.0 1.0 0.00 0.00 0.00 59 1021.6
20260504173248 78 152 1.0 1.0 0.00 0.00 0.00 62 1021.7
20260504172744 77 71 3.0 3.0 0.00 0.00 0.00 59 1021.6
20260504172241 76 41 4.0 6.0 0.00 0.00 0.00 60 1021.3
20260504171737 76 147 1.0 2.0 0.00 0.00 0.00 61 1021.5
20260504171234 75 135 1.0 2.0 0.00 0.00 0.00 59 1021.6
20260504170731 77 88 2.0 3.0 0.00 0.00 0.00 61 1021.7
20260504170228 76 164 1.0 1.0 0.00 0.00 0.00 61 1021.7
20260504160147 79 133 2.0 2.0 0.00 0.00 0.00 59 1021.8
20260504151114 78 130 2.0 2.0 0.00 0.00 0.00 57 1022.4
20260504150612 77 100 2.0 3.0 0.00 0.00 0.00 60 1022.2
20260504150109 76 95 1.0 2.0 0.00 0.00 0.00 61 1022.3
20260504141037 77 268 1.0 2.0 0.00 0.00 0.00 63 1021.9
20260504140534 77 42 2.0 2.0 0.00 0.00 0.00 61 1022.0
20260504130458 66 157 0.0 0.0 0.00 0.00 0.00 86 1021.7
20260504110345 56 170 0.0 0.0 0.00 0.00 0.00 96 1021.0
20260504100303 56 170 0.0 0.0 0.00 0.00 0.00 95 1020.5
20260504081656 57 170 0.0 0.0 0.00 0.00 0.00 95 1020.6
20260504081152 57 170 0.0 0.0 0.00 0.00 0.00 95 1020.5
20260504080649 57 170 0.0 0.0 0.00 0.00 0.00 95 1020.5
20260504080145 57 171 0.0 0.0 0.00 0.00 0.00 95 1020.7
20260504070114 58 171 0.0 0.0 0.00 0.00 0.00 94 1020.9
20260504050502 60 170 0.0 0.0 0.00 0.00 0.00 91 1021.7
20260504045959 60 170 0.0 0.0 0.00 0.00 0.00 91 1022.0
20260504045455 60 170 0.0 0.0 0.00 0.00 0.00 91 1021.6
20260504044951 60 170 0.0 0.0 0.00 0.00 0.00 90 1021.9
20260504044449 61 170 0.0 0.0 0.00 0.00 0.00 90 1021.8
20260504043946 61 170 0.0 0.0 0.00 0.00 0.00 90 1021.7
20260504043443 61 170 0.0 0.0 0.00 0.00 0.00 90 1021.9
20260504042940 61 170 0.0 0.0 0.00 0.00 0.00 90 1021.9
20260504042436 61 170 0.0 0.0 0.00 0.00 0.00 90 1021.7
20260504041933 61 171 0.0 0.0 0.00 0.00 0.00 90 1021.9
20260504041429 61 169 0.0 0.0 0.00 0.00 0.00 89 1021.7
20260504040925 61 170 0.0 0.0 0.00 0.00 0.00 89 1021.8
20260504040424 61 169 0.0 0.0 0.00 0.00 0.00 89 1021.6
20260504035919 62 169 0.0 0.0 0.00 0.00 0.00 89 1021.6
20260504035417 62 169 0.0 0.0 0.00 0.00 0.00 89 1021.9
20260504034913 62 169 0.0 0.0 0.00 0.00 0.00 89 1021.9
20260504034411 62 169 0.0 0.0 0.00 0.00 0.00 89 1022.0
20260504033908 62 169 0.0 0.0 0.00 0.00 0.00 89 1021.8
20260504033406 62 169 0.0 0.0 0.00 0.00 0.00 89 1021.7
20260504032902 62 169 0.0 0.0 0.00 0.00 0.00 89 1021.8
20260504032359 62 169 0.0 0.0 0.00 0.00 0.00 89 1021.9
20260504031856 62 169 0.0 0.0 0.00 0.00 0.00 89 1021.9
20260504031353 62 169 0.0 0.0 0.00 0.00 0.00 88 1021.9
20260504030849 62 169 0.0 0.0 0.00 0.00 0.00 88 1021.9
20260504030347 63 169 0.0 0.0 0.00 0.00 0.00 88 1022.1
20260504025843 63 169 0.0 0.0 0.00 0.00 0.00 88 1022.0
20260504025340 63 169 0.0 0.0 0.00 0.00 0.00 88 1021.9
20260504024836 63 169 0.0 0.0 0.00 0.00 0.00 87 1021.9
20260504024333 63 169 0.0 0.0 0.00 0.00 0.00 87 1021.9
20260504023830 63 169 0.0 0.0 0.00 0.00 0.00 86 1021.8
20260504023327 63 169 0.0 0.0 0.00 0.00 0.00 86 1022.0
20260504022822 64 169 0.0 0.0 0.00 0.00 0.00 86 1021.6
20260504022319 64 168 0.0 0.0 0.00 0.00 0.00 85 1021.7
20260504021816 64 168 0.0 0.0 0.00 0.00 0.00 85 1021.7
20260504021314 64 168 0.0 0.0 0.00 0.00 0.00 85 1021.8
20260504020810 64 167 0.0 0.0 0.00 0.00 0.00 84 1021.6
20260504020307 64 167 0.0 0.0 0.00 0.00 0.00 83 1021.6
20260504015803 64 167 0.0 0.0 0.00 0.00 0.00 82 1021.6
20260504015259 65 167 0.0 0.0 0.00 0.00 0.00 82 1021.6
20260504014755 65 167 0.0 0.0 0.00 0.00 0.00 81 1021.5
20260504014252 65 166 0.0 0.0 0.00 0.00 0.00 80 1021.5
20260504013749 66 166 0.0 0.0 0.00 0.00 0.00 79 1021.5
20260504013247 66 166 0.0 0.0 0.00 0.00 0.00 79 1021.4
20260504012743 66 166 0.0 0.0 0.00 0.00 0.00 78 1021.6
20260504012241 66 163 0.0 0.0 0.00 0.00 0.00 77 1021.3
20260504011738 67 164 0.0 0.0 0.00 0.00 0.00 76 1021.2
20260504011235 67 156 0.0 0.0 0.00 0.00 0.00 76 1021.1
20260504010731 67 186 3.0 3.0 0.00 0.00 0.00 75 1021.0
20260504010226 67 143 0.0 0.0 0.00 0.00 0.00 75 1021.2
20260504005723 67 120 0.0 0.0 0.00 0.00 0.00 75 1021.4
20260504005220 67 160 0.0 0.0 0.00 0.00 0.00 75 1021.0
20260504004718 67 153 0.0 0.0 0.00 0.00 0.00 74 1021.1
20260504004215 67 154 0.0 0.0 0.00 0.00 0.00 74 1020.9
20260504003712 67 156 0.0 0.0 0.00 0.00 0.00 74 1021.1
20260504003208 67 147 0.0 0.0 0.00 0.00 0.00 74 1021.3
20260504002705 68 152 0.0 0.0 0.00 0.00 0.00 74 1021.2
20260504002202 68 154 0.0 0.0 0.00 0.00 0.00 73 1021.2